Regional Weather Roundup
Issued by NWS Kansas City/Pleasant Hill, MO

Home | Current Version | Previous Version | Graphics & Text | Print | Product List | Glossary Off
Versions: 1 2 3 4 5 6 7 8 9 10 11 12 13 14 15 16 17 18 19 20 21 22 23 24 25 26 27 28 29 30 31 32 33 34 35 36 37 38 39 40 41 42 43 44 45 46 47 48 49 50

000
ASUS43 KEAX 030104
RWREAX

WEATHER ROUNDUP FOR EASTERN KANSAS AND NORTHWEST MISSOURI
NATIONAL WEATHER SERVICE KANSAS CITY/PLEASANT HILL MO
800 PM CDT TUE SEP 02 2014

KSZ040-057-103>105-MOZ028-029-037-043-030200-
...KANSAS CITY METROPOLITAN AREA...

CITY           SKY/WX    TMP DP  RH WIND       PRES   REMARKS
K.C. INTL      PTCLDY    75  68  78 SW5       29.95R
K.C. DOWNTOWN  CLEAR     80  67  64 NW3       29.94R
LEES SUMMIT    CLEAR     76  69  79 CALM      29.96R
OLATHE - IXD   CLEAR     76  67  73 SE3       29.96R
OLATHE - OJC   CLEAR     75  68  78 CALM      29.95R
LAWRENCE       CLEAR     73  68  84 E5        29.94R

$$

MOZ001>008-011>017-020>025-030>033-038>040-044>046-053-054-030200-
...NORTHERN AND CENTRAL MISSOURI...

CITY           SKY/WX    TMP DP  RH WIND       PRES   REMARKS
ST. JOSEPH     CLEAR     76  66  71 NE6       29.93S
MOSBY          CLEAR     77  70  78 CALM      29.94R
WHITEMAN AFB   CLEAR     74  71  89 S3        29.95S
CLINTON        CLEAR     73  72  94 CALM      29.96S
SEDALIA        CLEAR     73  69  87 S5        29.96S
WARSAW         NOT AVBL
MARSHALL       CLEAR     77  72  83 CALM      29.96S
CHILLICOTHE      N/A     73  68  84 CALM      29.96R
MOBERLY        CLEAR     75  64  69 CALM      29.97R
KIRKSVILLE     CLEAR     70  66  87 CALM      29.97R

$$

MOZ041-047>049-056>058-063>065-088>090-097-030200-
...EASTERN AND SOUTHERN MISSOURI...

CITY           SKY/WX    TMP DP  RH WIND       PRES   REMARKS
ST. LOUIS INTL MOCLDY    78  67  68 CALM      29.97R
SPIRIT OF STL  PTCLDY    73  69  87 CALM      29.95R
COLUMBIA       CLEAR     74  69  85 SW3       29.97R
JEFFERSON CITY CLEAR     74  70  87 SE3       29.96R
MEXICO         CLEAR     75  70  83 CALM      29.96R
ROLLA          FOG       71  68  90 S3        29.98R VSB 1/4
LEBANON        CLEAR     72  66  83 NE3       30.00R
OSAGE BEACH    CLEAR     73  68  83 CALM      29.98R
SPRINGFIELD    CLEAR     73  66  78 S3        29.98R
BRANSON        CLEAR     72  68  88 SE7       30.03R
NEVADA         CLEAR     75  68  78 CALM      29.96S
JOPLIN         PTCLDY    74  68  81 S5        29.97R
WEST PLAINS    PTCLDY    70  65  84 CALM      30.01S

$$

IAZ060-094-KSZ022-034>040-054-083-096-NEZ052-066-093-030200-
...KANSAS...SOUTHEAST NEBRASKA AND IOWA...

CITY           SKY/WX    TMP DP  RH WIND       PRES   REMARKS
TOPEKA         CLEAR     78  70  76 E5        29.93R
MANHATTAN      CLEAR     79  68  69 E3        29.91S
EMPORIA        CLEAR     76  69  79 E6        29.94R
CHANUTE        CLEAR     76  68  76 S7        29.94S
WICHITA        PTCLDY    82  68  62 E9        29.90F
OMAHA          PTCLDY    76  59  55 E3        29.92R
LINCOLN        CLEAR     77  58  51 CALM      29.93S
FALLS CITY     CLEAR     76  64  66 E5        29.93R
LAMONI         CLEAR     73  62  68 CALM      29.96R
DES MOINES     PTCLDY    76  57  51 CALM      29.93R

$$




USA.gov is the U.S. government's official web portal to all federal, state and local government web resources and services.